Location: Anumalkud?ru
(16.4847°N, 80.6636°E)
Time: 09:19:50
(UTC+00:00)

Cosmos 2322 - Pass Details

Date: 11 April 2026
Orbit: 839 x 854 km, 71.0° (Epoch: 12 May)

Event Time Altitude Azimuth Distance (km) Brightness Sun altitude
Rises 13:45:33 0° 177° (S) 3,390 6.7 -13.4°
Reaches altitude 10° 13:48:11 10° 168° (SSE) 2,459 5.9 -14.0°
Maximum altitude 13:53:15 35° 103° (ESE) 1,337 4.2 -15.2°
Drops below altitude 10° 13:58:21 10° 39° (NE) 2,472 5.9 -16.4°
Sets 14:01:00 0° 31° (NNE) 3,411 6.7 -17.0°
